IBE9WB LEPA-GMMN

Flight info

Callsign IBE9WB
Flight time N/A
Altitude 35000
Route EPAMA DCT IXUPA N733 VLC M985 PIMOS N869 GALTO UB11 TUSOR
Aircraft A320/M-SDE3FGHIRWY/LB1

Departure

Time 2026-05-07 20:26
Airport Palma de Mallorca Airport (LEPA)

Arrival

Time N/A
Airport Mohammed V International Airport (GMMN)
Time Latitude Longitude Altitude Speed Heading
2026-05-07 19:36 39.55019 2.73489 37 ft 0 kts 165°
2026-05-07 20:16 39.55034 2.73483 36 ft 4 kts 153°
2026-05-07 20:16 39.55053 2.73463 36 ft 4 kts 111°
2026-05-07 20:17 39.55055 2.73432 38 ft 4 kts 64°
2026-05-07 20:17 39.55052 2.73425 36 ft 0 kts 59°
2026-05-07 20:20 39.55072 2.73468 38 ft 10 kts 58°
2026-05-07 20:20 39.55113 2.73553 38 ft 12 kts 58°
2026-05-07 20:20 39.55158 2.73650 38 ft 13 kts 58°
2026-05-07 20:21 39.55161 2.73759 37 ft 12 kts 140°
2026-05-07 20:21 39.55092 2.73810 38 ft 11 kts 149°
2026-05-07 20:21 39.54984 2.73894 38 ft 25 kts 149°
2026-05-07 20:21 39.54830 2.74001 38 ft 16 kts 181°
2026-05-07 20:22 39.54797 2.73968 38 ft 7 kts 225°
2026-05-07 20:22 39.54738 2.73953 38 ft 13 kts 177°
2026-05-07 20:22 39.54664 2.73862 38 ft 19 kts 241°
2026-05-07 20:22 39.54584 2.73695 38 ft 23 kts 237°
2026-05-07 20:23 39.54504 2.73533 38 ft 20 kts 237°
2026-05-07 20:23 39.54440 2.73385 36 ft 18 kts 240°
2026-05-07 20:23 39.54379 2.73259 38 ft 15 kts 237°
2026-05-07 20:23 39.54326 2.73150 38 ft 13 kts 239°
2026-05-07 20:24 39.54282 2.73055 37 ft 11 kts 239°
2026-05-07 20:24 39.54244 2.72975 38 ft 9 kts 238°
2026-05-07 20:24 39.54205 2.72919 38 ft 8 kts 202°
2026-05-07 20:24 39.54154 2.72982 38 ft 17 kts 101°
2026-05-07 20:25 39.54146 2.73143 38 ft 18 kts 93°
2026-05-07 20:25 39.54183 2.73292 37 ft 18 kts 59°
2026-05-07 20:25 39.54266 2.73465 38 ft 41 kts 57°
2026-05-07 20:25 39.54511 2.73989 36 ft 88 kts 59°
2026-05-07 20:26 39.54927 2.74862 38 ft 140 kts 58°
2026-05-07 20:26 39.55498 2.76060 383 ft 155 kts 59°
2026-05-07 20:26 39.56031 2.77262 1048 ft 156 kts 59°
2026-05-07 20:26 39.56577 2.78479 1748 ft 156 kts 59°
2026-05-07 20:27 39.57161 2.79778 2152 ft 178 kts 59°
2026-05-07 20:27 39.57827 2.81224 2528 ft 196 kts 60°
2026-05-07 20:27 39.58547 2.82841 2841 ft 218 kts 61°
2026-05-07 20:27 39.59297 2.84513 3805 ft 210 kts 59°
2026-05-07 20:28 39.60051 2.86168 4568 ft 216 kts 60°
2026-05-07 20:28 39.60833 2.87873 5248 ft 221 kts 59°
2026-05-07 20:28 39.61647 2.89560 6046 ft 221 kts 51°
2026-05-07 20:28 39.62896 2.90691 6778 ft 226 kts 20°
2026-05-07 20:29 39.64477 2.90852 7422 ft 234 kts 347°
2026-05-07 20:29 39.65908 2.89846 8184 ft 240 kts 316°
2026-05-07 20:29 39.66777 2.87980 8900 ft 245 kts 291°
2026-05-07 20:29 39.67367 2.85871 9581 ft 253 kts 289°
2026-05-07 20:30 39.67846 2.83655 10305 ft 254 kts 283°
2026-05-07 20:30 39.68193 2.81397 11032 ft 257 kts 279°
2026-05-07 20:30 39.68423 2.79098 11731 ft 258 kts 275°
2026-05-07 20:30 39.68544 2.76760 12440 ft 261 kts 275°
2026-05-07 20:31 39.68829 2.74414 13090 ft 268 kts 283°
2026-05-07 20:31 39.69425 2.72014 13319 ft 291 kts 293°
2026-05-07 20:31 39.70277 2.69518 13486 ft 314 kts 295°
2026-05-07 20:31 39.71199 2.66833 13649 ft 337 kts 294°
2026-05-07 20:32 39.72185 2.63958 13774 ft 358 kts 294°
2026-05-07 20:32 39.73218 2.60934 13911 ft 376 kts 294°
2026-05-07 20:32 39.74110 2.57685 14308 ft 385 kts 281°
2026-05-07 20:32 39.74222 2.54218 14810 ft 389 kts 262°
2026-05-07 20:33 39.73836 2.50737 15436 ft 390 kts 260°
2026-05-07 20:33 39.73433 2.47244 16055 ft 392 kts 260°
2026-05-07 20:33 39.73025 2.43725 16644 ft 394 kts 259°
2026-05-07 20:33 39.72616 2.40199 17217 ft 397 kts 259°
2026-05-07 20:34 39.72202 2.36638 17793 ft 399 kts 259°
2026-05-07 20:34 39.71787 2.33060 18343 ft 402 kts 259°
2026-05-07 20:34 39.71370 2.29472 18831 ft 404 kts 259°
2026-05-07 20:34 39.70948 2.25860 19343 ft 405 kts 260°
2026-05-07 20:35 39.70522 2.22234 19841 ft 407 kts 259°
2026-05-07 20:35 39.70092 2.18593 20333 ft 409 kts 259°
2026-05-07 20:35 39.69660 2.14934 20814 ft 411 kts 259°
2026-05-07 20:35 39.69227 2.11258 21283 ft 413 kts 259°
2026-05-07 20:36 39.68941 2.08827 21589 ft 414 kts 259°
2026-05-07 20:36 39.68503 2.05125 22054 ft 416 kts 259°
2026-05-07 20:36 39.68054 2.01408 22510 ft 417 kts 257°
2026-05-07 20:36 39.67185 1.97826 22928 ft 415 kts 242°
2026-05-07 20:37 39.65847 1.94497 23360 ft 416 kts 240°
2026-05-07 20:37 39.64477 1.91179 23742 ft 418 kts 240°
2026-05-07 20:37 39.63096 1.87858 24067 ft 421 kts 239°
2026-05-07 20:37 39.61696 1.84499 24403 ft 423 kts 239°
2026-05-07 20:38 39.60293 1.81140 24742 ft 425 kts 239°
2026-05-07 20:38 39.58882 1.77768 25092 ft 426 kts 239°
2026-05-07 20:38 39.57466 1.74386 25424 ft 428 kts 239°
2026-05-07 20:38 39.56042 1.70988 25770 ft 430 kts 240°
2026-05-07 20:39 39.54612 1.67577 26096 ft 431 kts 240°
2026-05-07 20:39 39.53183 1.64157 26443 ft 433 kts 240°
2026-05-07 20:39 39.51750 1.60723 26777 ft 434 kts 240°
2026-05-07 20:39 39.50311 1.57282 27103 ft 435 kts 240°
2026-05-07 20:40 39.48868 1.53840 27418 ft 436 kts 240°
2026-05-07 20:40 39.47416 1.50388 27776 ft 435 kts 242°
2026-05-07 20:40 39.45973 1.46960 28199 ft 434 kts 242°
2026-05-07 20:40 39.44539 1.43523 28548 ft 434 kts 243°
2026-05-07 20:41 39.43121 1.40076 28929 ft 433 kts 243°
2026-05-07 20:41 39.41740 1.36701 29399 ft 430 kts 243°
2026-05-07 20:41 39.40338 1.33279 29868 ft 427 kts 243°
2026-05-07 20:41 39.38949 1.29906 30286 ft 425 kts 243°
2026-05-07 20:42 39.37562 1.26550 30678 ft 423 kts 244°
2026-05-07 20:42 39.36173 1.23207 31042 ft 421 kts 244°
2026-05-07 20:42 39.34793 1.19893 31413 ft 419 kts 244°
2026-05-07 20:42 39.33418 1.16592 31805 ft 415 kts 246°
2026-05-07 20:43 39.32056 1.13331 32273 ft 410 kts 248°
2026-05-07 20:43 39.30707 1.10105 32740 ft 406 kts 248°
2026-05-07 20:43 39.29371 1.06902 33141 ft 404 kts 248°
2026-05-07 20:43 39.28042 1.03718 33502 ft 402 kts 248°
2026-05-07 20:44 39.26718 1.00545 33839 ft 401 kts 248°
2026-05-07 20:44 39.25400 0.97384 34145 ft 400 kts 248°
2026-05-07 20:44 39.24082 0.94229 34409 ft 399 kts 248°
2026-05-07 20:44 39.22759 0.91077 34668 ft 399 kts 248°
2026-05-07 20:45 39.21436 0.87929 34888 ft 400 kts 248°
2026-05-07 20:45 39.18773 0.81601 34975 ft 403 kts 248°
2026-05-07 20:46 39.16100 0.75251 34969 ft 402 kts 248°
2026-05-07 20:46 39.13447 0.68968 34978 ft 398 kts 248°
2026-05-07 20:47 39.10802 0.62713 34969 ft 396 kts 248°
2026-05-07 20:47 39.08173 0.56506 34976 ft 394 kts 248°
2026-05-07 20:48 39.05545 0.50318 34985 ft 394 kts 248°
2026-05-07 20:48 39.02918 0.44139 34989 ft 394 kts 248°
2026-05-07 20:49 39.00291 0.37954 34986 ft 394 kts 248°
2026-05-07 20:49 38.97659 0.31790 34996 ft 393 kts 248°
2026-05-07 20:50 38.95020 0.25643 35005 ft 392 kts 248°
2026-05-07 20:50 38.92390 0.19512 35007 ft 392 kts 248°
2026-05-07 20:51 38.89761 0.13391 35006 ft 391 kts 248°
2026-05-07 20:51 38.87134 0.07287 34983 ft 390 kts 248°
2026-05-07 20:52 38.84508 0.01202 34995 ft 389 kts 248°
2026-05-07 20:52 38.81903 -0.04832 34993 ft 389 kts 247°
2026-05-07 20:53 38.79283 -0.10903 34994 ft 389 kts 247°
2026-05-07 20:53 38.76639 -0.16943 34991 ft 391 kts 244°
2026-05-07 20:54 38.73560 -0.22714 34984 ft 393 kts 242°
2026-05-07 20:54 38.70369 -0.28416 34984 ft 394 kts 241°
2026-05-07 20:55 38.67174 -0.34115 34983 ft 394 kts 242°
2026-05-07 20:55 38.64000 -0.39819 34976 ft 393 kts 242°
2026-05-07 20:56 38.60849 -0.45533 34974 ft 393 kts 242°
2026-05-07 20:56 38.57711 -0.51261 34985 ft 394 kts 242°
2026-05-07 20:57 38.54560 -0.56984 34984 ft 394 kts 242°
2026-05-07 20:57 38.51398 -0.62710 35000 ft 394 kts 242°
2026-05-07 20:58 38.48238 -0.68414 34998 ft 394 kts 242°
2026-05-07 20:58 38.45074 -0.74116 35000 ft 394 kts 242°
2026-05-07 20:59 38.41910 -0.79805 35006 ft 393 kts 241°
2026-05-07 20:59 38.38745 -0.85486 35012 ft 393 kts 241°
2026-05-07 21:00 38.35583 -0.91163 34993 ft 392 kts 241°
2026-05-07 21:00 38.32421 -0.96833 35004 ft 392 kts 241°
2026-05-07 21:01 38.29258 -1.02495 35007 ft 392 kts 241°
2026-05-07 21:01 38.26093 -1.08145 35001 ft 392 kts 241°
2026-05-07 21:02 38.22917 -1.13799 34996 ft 392 kts 241°
2026-05-07 21:02 38.19743 -1.19437 34994 ft 392 kts 240°
2026-05-07 21:03 38.16565 -1.25080 34975 ft 392 kts 240°
2026-05-07 21:03 38.13380 -1.30720 34979 ft 393 kts 240°
2026-05-07 21:04 38.10194 -1.36365 34980 ft 393 kts 240°
2026-05-07 21:04 38.07001 -1.42003 34989 ft 394 kts 240°
2026-05-07 21:05 38.03821 -1.47606 34992 ft 394 kts 240°
2026-05-07 21:05 38.00617 -1.53240 35001 ft 394 kts 240°
2026-05-07 21:06 37.97411 -1.58872 35006 ft 394 kts 240°
2026-05-07 21:06 37.94200 -1.64496 34982 ft 393 kts 239°
2026-05-07 21:07 37.90997 -1.70106 34992 ft 393 kts 239°
2026-05-07 21:07 37.87789 -1.75715 35000 ft 393 kts 239°
2026-05-07 21:08 37.84573 -1.81332 35001 ft 394 kts 239°
2026-05-07 21:08 37.81355 -1.86936 35001 ft 394 kts 239°
2026-05-07 21:09 37.78139 -1.92528 35004 ft 394 kts 239°
2026-05-07 21:09 37.74916 -1.98123 35003 ft 393 kts 239°
2026-05-07 21:10 37.71690 -2.03715 35003 ft 394 kts 239°
2026-05-07 21:10 37.68459 -2.09302 34974 ft 394 kts 239°
2026-05-07 21:11 37.65227 -2.14890 34980 ft 395 kts 239°
2026-05-07 21:11 37.60380 -2.23246 34988 ft 395 kts 239°
2026-05-07 21:12 37.57124 -2.28842 34995 ft 396 kts 239°